DJ2RF Weather Reports


time (UTC)temp
F
wind
direction
speed
knots
gust
knots
rain 1hr
in
rain 24hr
in
rain mn
in
humidity
%
barometer
mb
20260506123637 68 360 0.0 0.0 0.00 0.00 0.00 60 1007.0
20260506122733 67 360 0.0 0.0 0.00 0.00 0.00 60 1007.2
20260506121900 67 360 0.0 0.0 0.00 0.00 0.00 60 1007.2
20260506121025 67 360 0.0 0.0 0.00 0.00 0.00 60 1007.2
20260506120136 68 360 0.0 0.0 0.00 0.00 0.00 55 1007.4
20260506115310 68 360 0.0 0.0 0.00 0.00 0.00 56 1007.5
20260506114507 67 360 0.0 0.0 0.00 0.00 0.00 58 1007.5
20260506113509 67 360 0.0 0.0 0.00 0.00 0.00 58 1007.6
20260506112605 68 360 0.0 0.0 0.00 0.00 0.00 57 1007.7
20260506111608 68 360 0.0 0.0 0.00 0.00 0.00 63 1007.8
20260506110718 67 360 0.0 0.0 0.00 0.00 0.00 61 1008.0
20260506105741 67 360 0.0 0.0 0.00 0.00 0.00 63 1008.1
20260506104840 66 360 0.0 0.0 0.00 0.00 0.00 66 1008.2
20260506104014 66 360 0.0 0.0 0.00 0.00 0.00 65 1008.3
20260506103138 65 360 0.0 0.0 0.00 0.00 0.00 68 1008.4
20260506102323 63 360 0.0 0.0 0.00 0.00 0.00 69 1008.5
20260506101507 63 360 0.0 0.0 0.00 0.00 0.00 68 1008.6
20260506100613 62 360 0.0 0.0 0.00 0.00 0.00 71 1008.7
20260506095723 62 360 0.0 0.0 0.00 0.00 0.00 68 1008.5
20260506094822 63 360 0.0 0.0 0.00 0.00 0.00 69 1008.7
20260506093950 62 360 0.0 0.0 0.00 0.00 0.00 70 1008.6
20260506093001 62 360 0.0 0.0 0.00 0.00 0.00 69 1008.6
20260506092012 63 360 0.0 0.0 0.00 0.00 0.00 70 1008.7
20260506091136 62 360 0.0 0.0 0.00 0.00 0.00 71 1008.7
20260506090235 62 360 0.0 0.0 0.00 0.00 0.00 69 1008.7
20260506085257 62 360 0.0 0.0 0.00 0.00 0.00 71 1008.7
20260506084446 62 360 0.0 0.0 0.00 0.00 0.00 71 1008.7
20260506083621 61 360 0.0 0.0 0.00 0.00 0.00 71 1008.7
20260506082650 61 360 0.0 0.0 0.00 0.00 0.00 72 1008.7
20260506081837 61 360 0.0 0.0 0.00 0.00 0.00 72 1008.9
20260506080931 61 360 0.0 0.0 0.00 0.00 0.00 72 1008.8
20260506073206 59 360 0.0 0.0 0.00 0.00 0.00 77 1009.0
20260506072241 58 360 0.0 0.0 0.00 0.00 0.00 77 1009.1
20260506071344 58 360 0.0 0.0 0.00 0.00 0.00 78 1009.2
20260506070538 57 360 0.0 0.0 0.00 0.00 0.00 78 1009.1
20260506062344 54 360 0.0 0.0 0.00 0.00 0.00 82 1009.1
20260506061422 54 360 0.0 0.0 0.00 0.00 0.00 82 1008.8
20260506060610 54 360 0.0 0.0 0.00 0.00 0.00 83 1008.8
20260506051302 51 360 0.0 0.0 0.00 0.00 0.00 84 1009.2
20260506050449 51 360 0.0 0.0 0.00 0.00 0.00 84 1009.2
20260506044750 52 360 0.0 0.0 0.00 0.00 0.00 84 1009.2
20260506043759 52 360 0.0 0.0 0.00 0.00 0.00 84 1009.3
20260506043001 52 360 0.0 0.0 0.00 0.00 0.00 84 1009.4
20260506042119 51 360 0.0 0.0 0.00 0.00 0.00 84 1009.3
20260506041212 51 360 0.0 0.0 0.00 0.00 0.00 84 1009.5
20260506040221 51 360 0.0 0.0 0.00 0.00 0.00 85 1009.6
20260506035222 51 360 0.0 0.0 0.00 0.00 0.00 85 1009.4
20260506034312 51 360 0.0 0.0 0.00 0.00 0.00 85 1009.6
20260506033332 51 360 0.0 0.0 0.00 0.00 0.00 85 1009.8
20260506032526 50 360 0.0 0.0 0.00 0.00 0.00 86 1009.8
20260506031705 50 360 0.0 0.0 0.00 0.00 0.00 85 1009.8
20260506030832 50 360 0.0 0.0 0.00 0.00 0.00 85 1009.7
20260506030028 50 360 0.0 0.0 0.00 0.00 0.00 84 1009.8
20260506025131 50 360 0.0 0.0 0.00 0.00 0.00 84 1009.8
20260506024225 50 360 0.0 0.0 0.00 0.00 0.00 84 1010.0
20260506023239 50 360 0.0 0.0 0.00 0.00 0.00 84 1009.9
20260506022332 50 360 0.0 0.0 0.00 0.00 0.00 83 1010.0
20260506021505 51 360 0.0 0.0 0.00 0.00 0.00 83 1010.0
20260506020507 51 360 0.0 0.0 0.00 0.00 0.00 82 1010.0
20260506015510 51 360 0.0 0.0 0.00 0.00 0.00 82 1009.9
20260506014512 52 360 0.0 0.0 0.00 0.00 0.00 82 1010.0
20260506013700 52 360 0.0 0.0 0.00 0.00 0.00 83 1010.1
20260506012800 52 360 0.0 0.0 0.00 0.00 0.00 82 1010.2
20260506011832 52 360 0.0 0.0 0.00 0.00 0.00 82 1010.2
20260506010955 52 360 0.0 0.0 0.00 0.00 0.00 82 1010.0
20260506010052 53 360 0.0 0.0 0.00 0.00 0.00 81 1010.0
20260506005057 53 360 0.0 0.0 0.00 0.00 0.00 80 1010.1
20260506004133 54 360 0.0 0.0 0.00 0.00 0.00 80 1010.1
20260506003227 54 360 0.0 0.0 0.00 0.00 0.00 80 1010.2
20260506002329 54 360 0.0 0.0 0.00 0.00 0.00 80 1010.2
20260506001518 54 360 0.0 0.0 0.00 0.00 0.00 79 1010.1
20260506000651 54 360 0.0 0.0 0.00 0.00 0.00 79 1010.3
20260505235741 55 360 0.0 0.0 0.00 0.00 0.00 79 1010.3
20260505234910 55 360 0.0 0.0 0.00 0.00 0.00 78 1010.4
20260505234111 55 360 0.0 0.0 0.00 0.00 0.00 78 1010.5
20260505233129 55 360 0.0 0.0 0.00 0.00 0.00 78 1010.6
20260505232131 56 360 0.0 0.0 0.00 0.00 0.00 78 1010.7
20260505231223 56 360 0.0 0.0 0.00 0.00 0.00 78 1010.7
20260505230237 56 360 0.0 0.0 0.00 0.00 0.00 78 1010.8
20260505225257 56 360 0.0 0.0 0.00 0.00 0.00 79 1010.9
20260505224307 56 360 0.0 0.0 0.00 0.00 0.00 81 1010.7
20260505223422 56 360 0.0 0.0 0.00 0.00 0.00 82 1010.7
20260505222551 56 360 0.0 0.0 0.00 0.00 0.00 82 1010.7
20260505221737 56 360 0.0 0.0 0.00 0.00 0.00 82 1010.4
20260505220755 56 360 0.0 0.0 0.00 0.00 0.00 81 1010.3
20260505215825 57 360 0.0 0.0 0.00 0.00 0.00 81 1010.2
20260505214920 57 360 0.0 0.0 0.00 0.00 0.00 81 1010.2
20260505214008 57 360 0.0 0.0 0.00 0.00 0.00 81 1010.3
20260505213147 57 360 0.0 0.0 0.00 0.00 0.00 81 1010.5
20260505212341 57 360 0.0 0.0 0.00 0.00 0.00 81 1010.5
20260505211343 57 360 0.0 0.0 0.00 0.00 0.00 81 1010.7
20260505210507 57 360 0.0 0.0 0.00 0.00 0.00 81 1010.6
20260505205629 57 360 0.0 0.0 0.00 0.00 0.01 80 1010.6
20260505204714 57 360 0.0 0.0 0.00 0.00 0.01 80 1010.5
20260505203844 57 360 0.0 0.0 0.00 0.00 0.01 80 1010.4
20260505202902 56 360 0.0 0.0 0.00 0.00 0.01 80 1010.3
20260505202029 56 360 0.0 0.0 0.00 0.00 0.01 80 1010.2
20260505201158 56 360 0.0 0.0 0.00 0.00 0.01 80 1010.0
20260505200302 57 360 0.0 0.0 0.00 0.00 0.02 79 1009.9
20260505195459 57 360 0.0 0.0 0.00 0.00 0.02 79 1009.8
20260505194642 58 360 0.0 0.0 0.00 0.00 0.02 78 1009.8
20260505193827 58 360 0.0 0.0 0.00 0.00 0.02 78 1009.6
20260505192836 58 360 0.0 0.0 0.00 0.00 0.02 78 1009.4
20260505191849 58 360 0.0 0.0 0.00 0.00 0.02 78 1009.4
20260505191007 58 360 0.0 0.0 0.00 0.00 0.02 78 1009.4
20260505190155 58 360 0.0 0.0 0.00 0.00 0.02 78 1009.2
20260505185201 59 360 0.0 0.0 0.00 0.00 0.02 77 1008.9
20260505184217 59 360 0.0 0.0 0.00 0.00 0.02 76 1008.7
20260505183341 59 360 0.0 0.0 0.00 0.00 0.02 76 1008.6
20260505182427 60 360 0.0 0.0 0.00 0.00 0.02 75 1008.8
20260505181456 60 360 0.0 0.0 0.00 0.00 0.02 76 1008.8
20260505180502 60 360 0.0 0.0 0.00 0.00 0.02 76 1008.8
20260505175557 60 360 0.0 0.0 0.00 0.00 0.02 76 1008.7
20260505174712 61 360 0.0 0.0 0.00 0.00 0.02 75 1008.8
20260505173803 61 360 0.0 0.0 0.00 0.00 0.02 75 1008.5
20260505172958 61 360 0.0 0.0 0.00 0.00 0.02 74 1008.6
20260505172147 61 360 0.0 0.0 0.00 0.00 0.02 74 1008.6
20260505171320 62 360 0.0 0.0 0.00 0.00 0.02 72 1008.5
20260505170409 62 360 0.0 0.0 0.00 0.00 0.02 73 1008.6
20260505165539 62 360 0.0 0.0 0.00 0.00 0.02 73 1008.4
20260505164716 62 360 0.0 0.0 0.00 0.00 0.02 73 1008.6
20260505163745 62 360 0.0 0.0 0.00 0.00 0.02 72 1008.5
20260505162923 62 360 0.0 0.0 0.00 0.00 0.02 72 1008.7
20260505161952 62 360 0.0 0.0 0.00 0.00 0.02 71 1008.8
20260505161004 62 360 0.0 0.0 0.00 0.00 0.02 71 1008.6
20260505152442 63 360 0.0 0.0 0.00 0.00 0.02 70 1008.5
20260505151516 63 360 0.0 0.0 0.00 0.00 0.02 69 1008.5
20260505150653 64 360 0.0 0.0 0.00 0.00 0.02 68 1008.6
20260505124837 74 360 0.0 0.0 0.00 0.00 0.02 48 1008.0